Waco, TX

7:04 PM CDT on July 27, 2017 (GMT -0500)
Waco Regional

Weather History for KACT - November, 2011

Change the Weather History Date:

Wednesday, November 2, 2011

  Actual Average Record
Temperature  
Mean Temperature 67 °F 63 °F  
Max Temperature 83 °F 74 °F 88 °F (2012)
Min Temperature 50 °F 52 °F 28 °F (1951)
Degree Days  
Heating Degree Days 0 5  
Month to date heating degree days 0 10  
Since 1 July heating degree days 66 77  
Cooling Degree Days 2 3  
Month to date cooling degree days 2 6  
Year to date cooling degree days 3772 2762  
Growing Degree Days 18 (Base 50)    
Moisture  
Dew Point 52 °F    
Average Humidity 65    
Maximum Humidity 90    
Minimum Humidity 40    
Precipitation  
Precipitation 0.00 in 0.11 in 2.01 in (1902)
Month to date precipitation 0.00 0.22  
Year to date precipitation 20.27 29.34  
Snow  
Snow 0.00 in 0.00 in T in (1951)
Month to date snowfall 0.0 0.0  
Since 1 July snowfall 0.0 0.0  
Since 1 September snowfall 0.0 0.0  
Snow Depth 0.00 in    
Sea Level Pressure  
Sea Level Pressure 30.03 in    
Wind  
Wind Speed 18 mph (South)    
Max Wind Speed 35 mph    
Max Gust Speed 44 mph    
Visibility 10 miles    
Events      
T = Trace of Precipitation, MM = Missing Value Source: NWS Daily Summary

Daily Weather History Graph

Daily Weather History Graph

Search for Another Location

Airport or City:

Trip Planner

Search our weather history database for the weather conditions in past years. The results will help you decide how hot, cold, wet, or windy it might be!

Date:

Astronomy

Nov. 02, 2011 Rise Set
Actual Time 7:45 AM CDT 6:38 PM CDT
Civil Twilight 7:20 AM CDT 7:04 PM CDT
Nautical Twilight 6:51 AM CDT 7:32 PM CDT
Astronomical Twilight 6:23 AM CDT 8:01 PM CDT
Moon 2:06 PM CDT (11/2) 12:25 AM CDT (11/2)
Length of Visible Light 11h 43m
Length of Day
10h 53m
Waxing Crescent, 50% of the Moon is Illuminated
Nov 2
Waxing Crescent
Nov 10
Full
Nov 18
Last Quarter
Nov 25
New
Dec 2
First Quarter

Hourly Weather History & Observations

Time (CDT) Temp. Heat Index Dew Point Humidity Pressure Visibility Wind Dir Wind Speed Gust Speed Precip Events Conditions
12:51 AM 66.0 °F - 55.0 °F 68% 30.01 in 10.0 mi SSE 15.0 mph - N/A   Clear
1:51 AM 64.0 °F - 55.9 °F 75% 30.01 in 10.0 mi SSE 13.8 mph - N/A   Clear
2:51 AM 64.0 °F - 57.0 °F 78% 30.00 in 10.0 mi SSE 13.8 mph - N/A   Mostly Cloudy
3:51 AM 62.1 °F - 57.0 °F 84% 30.00 in 10.0 mi SSE 12.7 mph - N/A   Scattered Clouds
4:51 AM 61.0 °F - 57.0 °F 87% 29.99 in 10.0 mi SSE 12.7 mph - N/A   Clear
5:51 AM 60.8 °F - 57.2 °F 88% 30.00 in 10.0 mi SSE 13.8 mph - N/A   Clear
6:51 AM 60.1 °F - 57.0 °F 90% 29.99 in 10.0 mi SSE 9.2 mph - N/A   Clear
7:51 AM 60.1 °F - 57.0 °F 90% 29.99 in 7.0 mi SSE 10.4 mph - N/A   Clear
8:51 AM 62.6 °F - 57.2 °F 82% 30.03 in 6.0 mi South 12.7 mph - N/A   Partly Cloudy
9:51 AM 64.9 °F - 59.0 °F 81% 30.02 in 10.0 mi South 13.8 mph - N/A   Mostly Cloudy
10:51 AM 70.0 °F - 59.0 °F 68% 30.01 in 10.0 mi South 16.1 mph 20.7 mph N/A   Partly Cloudy
11:51 AM 75.0 °F - 60.1 °F 60% 30.02 in 10.0 mi South 17.3 mph 25.3 mph N/A   Mostly Cloudy
12:51 PM 78.1 °F - 59.0 °F 52% 29.98 in 10.0 mi South 23.0 mph 29.9 mph N/A   Scattered Clouds
1:51 PM 80.1 °F 80.6 °F 57.9 °F 47% 29.94 in 10.0 mi South 21.9 mph - N/A   Partly Cloudy
2:51 PM 82.0 °F 82.0 °F 57.9 °F 44% 29.92 in 10.0 mi South 20.7 mph 25.3 mph N/A   Partly Cloudy
4:51 PM 82.9 °F 82.4 °F 57.0 °F 41% 29.93 in 10.0 mi SSW 16.1 mph - N/A   Clear
5:51 PM 81.0 °F 80.8 °F 55.9 °F 42% 29.94 in 9.0 mi SSW 10.4 mph - N/A   Partly Cloudy
6:51 PM 73.9 °F - 57.0 °F 55% 30.00 in 10.0 mi NNW 25.3 mph 35.7 mph N/A   Mostly Cloudy
7:10 PM 69.8 °F - 44.6 °F 40% 30.04 in 10.0 mi NNW 26.5 mph 36.8 mph N/A   Overcast
7:51 PM 66.0 °F - 41.0 °F 40% 30.09 in 10.0 mi NNW 29.9 mph 40.3 mph N/A   Overcast
8:51 PM 60.1 °F - 37.9 °F 44% 30.15 in 10.0 mi NNW 24.2 mph 43.7 mph N/A   Overcast
9:51 PM 57.0 °F - 34.0 °F 42% 30.21 in 10.0 mi NW 23.0 mph 39.1 mph N/A   Overcast
10:51 PM 55.0 °F - 32.0 °F 42% 30.24 in 10.0 mi NNW 26.5 mph 36.8 mph N/A   Overcast
11:51 PM 52.0 °F - 32.0 °F 47% 30.27 in 10.0 mi NNW 25.3 mph 35.7 mph N/A   Mostly Cloudy